Location: ??????
(42.0089°N, 44.3281°E)
Time: 17:35:06
(UTC+00:00)

USA 267 - Pass Details

Date: 05 June 2022
Orbit: 1101 x 1106 km, 123.0° (Epoch: 28 June)

Event Time Altitude Azimuth Distance (km) Brightness Sun altitude
Rises 18:42:29 0° 58° (ENE) 3,922 6.2 -17.9°
Reaches altitude 10° 18:45:27 10° 45° (NE) 2,964 5.7 -18.2°
Maximum altitude 18:50:26 24° 355° (N) 2,112 5.5 -18.7°
Drops below altitude 10° 18:55:24 10° 306° (NW) 2,965 6.5 -19.1°
Sets 18:58:22 0° 293° (WNW) 3,923 7.0 -19.4°
